Weather History for Kendall, FL

Change the Weather History Date:

Wednesday, March 12, 2014

  Actual Average Record
Temperature  
Mean Temperature 78 °F -  
Max Temperature 88 °F 80 °F 88 °F (2014)
Min Temperature 70 °F 56 °F 44 °F (1991)
Cooling Degree Days 14    
Growing Degree Days 28 (Base 50)    
Moisture  
Dew Point 65 °F    
Average Humidity 69    
Maximum Humidity 87    
Minimum Humidity 40    
Precipitation  
Precipitation 0.00 in - - ()
Sea Level Pressure  
Sea Level Pressure 29.87 in    
Wind  
Wind Speed 8 mph (SW)    
Max Wind Speed 21 mph    
Max Gust Speed 28 mph    
Visibility 10 miles    
Events      
Averages and records for this station are not official NWS values.
T = Trace of Precipitation, MM = Missing Value Source: NWS Daily Summary

Daily Weather History Graph

Daily Weather History Graph

Search for Another Location

Airport:

Trip Planner

Search our weather history database for the weather conditions in past years. The results will help you decide how hot, cold, wet, or windy it might be!

Date:

Astronomy

Mar. 12, 2014 Rise Set
Actual Time 7:34 AM EDT 7:29 PM EDT
Civil Twilight 7:11 AM EDT 7:52 PM EDT
Nautical Twilight 6:44 AM EDT 8:18 PM EDT
Astronomical Twilight 6:17 AM EDT 8:45 PM EDT
Moon 4:14 PM EDT (3/12) 4:46 AM EDT (3/12)
Length of Visible Light 12h 41m
Length of Day
11h 55m
Waxing Gibbous, 85% of the Moon is Illuminated
Mar 12
Waxing Gibbous
Mar 16
Full
Mar 23
Last Quarter
Mar 30
New
Apr 7
First Quarter

Hourly Weather History & Observations

Time (EDT) Temp. Heat Index Dew Point Humidity Pressure Visibility Wind Dir Wind Speed Gust Speed Precip Events Conditions
12:53 AM 72.0 °F - 64.9 °F 78% 29.91 in 10.0 mi South 5.8 mph - N/A   Clear
1:53 AM 71.1 °F - 64.9 °F 81% 29.91 in 10.0 mi South 3.5 mph - N/A   Clear
2:53 AM 72.0 °F - 66.0 °F 81% 29.88 in 10.0 mi South 4.6 mph - N/A   Scattered Clouds
3:53 AM 71.1 °F - 66.0 °F 84% 29.87 in 10.0 mi South 3.5 mph - N/A   Clear
4:53 AM 70.0 °F - 66.0 °F 87% 29.86 in 10.0 mi Calm Calm - N/A   Partly Cloudy
5:53 AM 71.1 °F - 66.9 °F 87% 29.85 in 10.0 mi SSE 3.5 mph - N/A   Clear
6:53 AM 70.0 °F - 66.0 °F 87% 29.86 in 10.0 mi South 3.5 mph - N/A   Clear
7:53 AM 72.0 °F - 68.0 °F 87% 29.87 in 10.0 mi SSW 4.6 mph - N/A   Clear
8:53 AM 73.9 °F - 68.0 °F 82% 29.88 in 10.0 mi SSW 6.9 mph - N/A   Mostly Cloudy
9:53 AM 79.0 °F - 68.0 °F 69% 29.90 in 10.0 mi SW 8.1 mph - N/A   Clear
10:53 AM 81.0 °F 82.5 °F 64.0 °F 56% 29.90 in 10.0 mi SW 13.8 mph - N/A   Partly Cloudy
11:53 AM 84.9 °F 85.4 °F 62.1 °F 46% 29.91 in 10.0 mi SW 12.7 mph - N/A   Partly Cloudy
12:53 PM 87.1 °F 86.7 °F 60.1 °F 40% 29.89 in 10.0 mi SW 13.8 mph 21.9 mph N/A   Mostly Cloudy
1:53 PM 84.9 °F 85.0 °F 61.0 °F 44% 29.86 in 10.0 mi WSW 15.0 mph - N/A   Scattered Clouds
2:53 PM 87.1 °F 87.0 °F 61.0 °F 41% 29.83 in 10.0 mi West 20.7 mph 27.6 mph N/A   Scattered Clouds
3:53 PM 86.0 °F 86.3 °F 62.1 °F 44% 29.81 in 10.0 mi WSW 19.6 mph 27.6 mph N/A   Scattered Clouds
4:53 PM 86.0 °F 86.3 °F 62.1 °F 44% 29.80 in 10.0 mi West 19.6 mph - N/A   Partly Cloudy
5:53 PM 82.9 °F 84.4 °F 64.0 °F 53% 29.81 in 10.0 mi West 16.1 mph 25.3 mph N/A   Scattered Clouds
6:53 PM 81.0 °F 82.2 °F 63.0 °F 54% 29.82 in 10.0 mi West 16.1 mph - N/A   Clear
7:53 PM 77.0 °F - 64.9 °F 66% 29.85 in 10.0 mi West 9.2 mph - N/A   Clear
8:53 PM 75.9 °F - 66.0 °F 71% 29.86 in 10.0 mi WSW 8.1 mph - N/A   Clear
9:53 PM 75.0 °F - 66.9 °F 76% 29.88 in 10.0 mi WSW 8.1 mph - N/A   Partly Cloudy
10:24 PM 75.0 °F - 68.0 °F 79% 29.89 in 10.0 mi WSW 6.9 mph - N/A   Mostly Cloudy
10:31 PM 75.0 °F - 68.0 °F 79% 29.89 in 10.0 mi WSW 6.9 mph - N/A   Overcast
10:42 PM 75.0 °F - 68.0 °F 79% 29.89 in 10.0 mi WSW 6.9 mph - N/A   Overcast
10:53 PM 75.0 °F - 68.0 °F 79% 29.89 in 10.0 mi WSW 6.9 mph - N/A   Overcast
11:53 PM 73.0 °F - 68.0 °F 84% 29.90 in 10.0 mi West 3.5 mph - N/A   Overcast